Location: Unspecified
(48.5539°N, 71.6350°W)
Time: 14:22:11
(UTC-04:00)

Tiangong 2 - Visible Passes

Search period start: 25 June 2019 00:00
Search period end: 05 July 2019 00:00
Orbit: 376 x 388 km, 42.8° (Epoch: 25 June)

Date Brightness Start Highest point End Pass type
(mag) Time Alt. Az. Time Alt. Az. Time Alt. Az.
28 Jun 3.3 03:27:09 11° S 03:28:25 13° SSE 03:30:04 10° SE visible
29 Jun 2.6 04:01:53 10° SW 04:04:26 23° SSE 04:07:01 10° ESE visible
30 Jun 2.8 03:03:53 17° S 03:04:24 18° SSE 03:06:39 10° ESE visible
01 Jul 2.3 03:38:19 13° SW 03:40:29 26° S 03:43:12 10° ESE visible
02 Jul 2.5 02:40:38 22° SSE 02:40:38 22° SSE 02:42:56 10° ESE visible
03 Jul 2.1 03:15:10 20° SW 03:16:31 28° S 03:19:16 10° ESE visible
04 Jul 2.8 02:17:38 20° SE 02:17:38 20° SE 02:19:06 10° ESE visible
04 Jul 2.3 03:50:00 10° WSW 03:52:38 24° S 03:55:16 10° SE visible
